Location: Unspecified
(43.8100°N, 0.0000°E)
Time: 05:23:31
(UTC+00:00)

CZ-6A DEB - Visible Passes

Search period start: 04 April 2026 00:00
Search period end: 14 April 2026 00:00
Orbit: 692 x 833 km, 98.6° (Epoch: 29 March)

Date Brightness Start Highest point End Pass type
(mag) Time Alt. Az. Time Alt. Az. Time Alt. Az.
4 Apr ? 20:20:19 10° W 20:21:19 10° W 20:22:20 10° WNW visible
5 Apr ? 19:38:58 10° SW 19:43:16 24° W 19:47:35 10° NW visible
6 Apr ? 19:00:11 10° S 19:05:26 49° W 19:10:42 10° NNW visible
7 Apr ? 20:04:22 10° WSW 20:07:18 15° W 20:10:13 10° NW visible
8 Apr ? 19:24:33 10° SSW 19:29:19 31° W 19:34:07 10° NW visible
10 Apr ? 19:49:27 10° SW 19:53:17 19° W 19:57:07 10° NW visible
11 Apr ? 19:10:18 10° SSW 19:15:24 41° W 19:20:29 10° NNW visible
12 Apr ? 20:15:31 10° WSW 20:17:20 12° W 20:19:07 10° WNW visible
13 Apr ? 19:34:51 10° SSW 19:39:18 25° W 19:43:43 10° NW visible
